User: anonymous   Login
Location: Unspecified
(0.0000°N, 0.0000°E)
Time: 04:30:32
(UTC+00:00)
Language:

DSP F17 - Orbit

View from above orbital plane
View from above orbital plane
View from above satellite
View from above satellite

Ground track
Ground track

The orbit data is extracted from the following two-line orbital elements,

1 23435U 94084A   24206.51646750  .00000004  00000-0  00000-0 0  9994
2 23435  14.5414   0.0079 0004339 230.3454 111.2229  0.99076712 25943
Epoch (UTC): 24 July 2024 12:23:42
Eccentricity: 0.0004339
inclination: 14.5414°
perigee height: 36106 km
apogee height: 36143 km
right ascension of ascending node: 0.0079°
argument of perigee: 230.3454°
revolutions per day: 0.99076712
mean anomaly at epoch: 111.2229°
orbit number at epoch: 2594

The dashed part of the orbit path shows where the satellite is in the earth's shadow,  

DLR